When you browse on this site, cookies collect data to enhance your experience and personalize the content and advertising you see.
Visit our Privacy Policy to learn more. By continuing to use the site, you agree to this use of cookies and data.
  • En España
  • Lista de países
  • Para 7 días
  • Temperatura del agua
  • Mapa Satelital
  • El tiempo en el mapa
  • Informadores
  • user-avatar
    Iniciar sesión

    Tiempo cada hora Yurevka

    Hoy, 18 Junio, Martes

    Tiempo Temperatura Precipitaciones Viento Presión Humedad
    00:00 +17°C° 0 mm 2 mps 747 mmHg 87%
    01:00 +17°C° 0 mm 2 mps 746 mmHg 89%
    02:00 +17°C° 0 mm 2 mps 746 mmHg 88%
    03:00 +17°C° 0.3 mm 2 mps 746 mmHg 89%
    04:00 +17°C° 0.3 mm 2 mps 746 mmHg 90%
    05:00 +18°C° 0.3 mm 2 mps 746 mmHg 91%
    06:00 +19°C° 1.1 mm 2 mps 746 mmHg 88%
    07:00 +20°C° 1.1 mm 2 mps 746 mmHg 86%
    08:00 +21°C° 1.1 mm 2 mps 746 mmHg 84%
    09:00 +24°C° 1 mm 2 mps 746 mmHg 78%
    10:00 +25°C° 1 mm 2 mps 746 mmHg 72%
    11:00 +26°C° 1 mm 2 mps 746 mmHg 66%
    12:00 +26°C° 0.2 mm 3 mps 746 mmHg 66%
    13:00 +26°C° 0.2 mm 3 mps 746 mmHg 67%
    14:00 +26°C° 0.2 mm 4 mps 746 mmHg 68%
    15:00 +26°C° 0.4 mm 4 mps 745 mmHg 71%
    16:00 +26°C° 0.4 mm 3 mps 745 mmHg 74%
    17:00 +25°C° 0.4 mm 3 mps 745 mmHg 77%
    18:00 +24°C° 0.2 mm 3 mps 746 mmHg 80%
    19:00 +21°C° 0.2 mm 3 mps 746 mmHg 83%
    20:00 +19°C° 0.2 mm 3 mps 746 mmHg 85%
    21:00 +19°C° 0 mm 3 mps 746 mmHg 86%
    22:00 +18°C° 0 mm 3 mps 746 mmHg 87%
    23:00 +17°C° 0 mm 2 mps 747 mmHg 88%

    Mañana, 19 Junio, Miércoles

    Tiempo Temperatura Precipitaciones Viento Presión Humedad
    00:00 +17°C° 0 mm 2 mps 747 mmHg 89%
    01:00 +16°C° 0 mm 3 mps 747 mmHg 90%
    02:00 +16°C° 0 mm 3 mps 747 mmHg 91%
    03:00 +16°C° 0 mm 3 mps 747 mmHg 89%
    04:00 +16°C° 0 mm 3 mps 748 mmHg 88%
    05:00 +16°C° 0 mm 3 mps 748 mmHg 86%
    06:00 +18°C° 0 mm 3 mps 748 mmHg 82%
    07:00 +19°C° 0 mm 3 mps 748 mmHg 77%
    08:00 +21°C° 0 mm 3 mps 748 mmHg 72%
    09:00 +22°C° 0 mm 3 mps 748 mmHg 67%
    10:00 +24°C° 0 mm 3 mps 748 mmHg 61%
    11:00 +25°C° 0 mm 3 mps 749 mmHg 56%
    12:00 +26°C° 0 mm 3 mps 748 mmHg 55%
    13:00 +26°C° 0 mm 3 mps 748 mmHg 54%
    14:00 +26°C° 0 mm 3 mps 748 mmHg 53%
    15:00 +26°C° 0 mm 2 mps 748 mmHg 56%
    16:00 +26°C° 0 mm 2 mps 748 mmHg 60%
    17:00 +26°C° 0 mm 1 mps 748 mmHg 63%
    18:00 +24°C° 0 mm 1 mps 748 mmHg 68%
    19:00 +22°C° 0 mm 1 mps 748 mmHg 72%
    20:00 +20°C° 0 mm 1 mps 748 mmHg 77%
    21:00 +20°C° 0 mm 1 mps 748 mmHg 78%
    22:00 +19°C° 0 mm 1 mps 749 mmHg 79%
    23:00 +18°C° 0 mm 1 mps 749 mmHg 80%

    Pasado mañana, 20 Junio, Jueves

    Tiempo Temperatura Precipitaciones Viento Presión Humedad
    00:00 +18°C° 0 mm 1 mps 749 mmHg 81%
    01:00 +16°C° 0 mm 1 mps 749 mmHg 81%
    02:00 +16°C° 0 mm 1 mps 749 mmHg 82%
    03:00 +18°C° 0 mm 1 mps 749 mmHg 82%
    04:00 +18°C° 0 mm 1 mps 750 mmHg 82%
    05:00 +19°C° 0 mm 1 mps 750 mmHg 81%
    06:00 +21°C° 0 mm 1 mps 750 mmHg 77%
    07:00 +22°C° 0 mm 1 mps 750 mmHg 72%
    08:00 +22°C° 0 mm 0 mps 750 mmHg 68%
    09:00 +23°C° 0 mm 0 mps 750 mmHg 63%
    10:00 +24°C° 0 mm 0 mps 750 mmHg 58%
    11:00 +26°C° 0 mm 0 mps 750 mmHg 53%
    12:00 +26°C° 0 mm 0 mps 750 mmHg 51%
    13:00 +26°C° 0 mm 0 mps 749 mmHg 50%
    14:00 +26°C° 0 mm 0 mps 749 mmHg 48%
    15:00 +26°C° 0 mm 0 mps 749 mmHg 52%
    16:00 +26°C° 0 mm 0 mps 749 mmHg 55%
    17:00 +26°C° 0 mm 0 mps 749 mmHg 59%
    18:00 +24°C° 0 mm 0 mps 749 mmHg 62%
    19:00 +22°C° 0 mm 0 mps 749 mmHg 64%
    20:00 +20°C° 0 mm 0 mps 749 mmHg 67%
    21:00 +21°C° 0 mm 1 mps 749 mmHg 70%
    22:00 +20°C° 0 mm 1 mps 749 mmHg 74%
    23:00 +19°C° 0 mm 1 mps 749 mmHg 77%

    21 Junio, Viernes

    Tiempo Temperatura Precipitaciones Viento Presión Humedad
    00:00 +19°C° 0 mm 1 mps 750 mmHg 79%
    01:00 +19°C° 0 mm 1 mps 750 mmHg 82%
    02:00 +18°C° 0 mm 1 mps 750 mmHg 84%
    03:00 +19°C° 0 mm 1 mps 750 mmHg 83%
    04:00 +20°C° 0 mm 1 mps 750 mmHg 83%
    05:00 +21°C° 0 mm 1 mps 750 mmHg 82%
    06:00 +22°C° 0 mm 1 mps 750 mmHg 78%
    07:00 +24°C° 0 mm 1 mps 750 mmHg 73%
    08:00 +25°C° 0 mm 2 mps 750 mmHg 68%
    09:00 +26°C° 0 mm 2 mps 750 mmHg 64%
    10:00 +26°C° 0 mm 2 mps 750 mmHg 60%
    11:00 +27°C° 0 mm 2 mps 750 mmHg 56%
    12:00 +27°C° 0 mm 2 mps 750 mmHg 55%
    13:00 +28°C° 0 mm 2 mps 750 mmHg 55%
    14:00 +28°C° 0 mm 2 mps 750 mmHg 54%
    15:00 +28°C° 0 mm 2 mps 750 mmHg 59%
    16:00 +28°C° 0 mm 2 mps 749 mmHg 63%
    17:00 +27°C° 0 mm 2 mps 749 mmHg 67%
    18:00 +26°C° 0 mm 2 mps 749 mmHg 71%
    19:00 +24°C° 0 mm 2 mps 749 mmHg 74%
    20:00 +21°C° 0 mm 2 mps 749 mmHg 78%
    21:00 +20°C° 0 mm 2 mps 750 mmHg 79%
    22:00 +20°C° 0 mm 2 mps 750 mmHg 80%
    23:00 +19°C° 0 mm 2 mps 750 mmHg 81%

    22 Junio, Sábado

    Tiempo Temperatura Precipitaciones Viento Presión Humedad
    00:00 +19°C° 0 mm 2 mps 750 mmHg 83%
    01:00 +18°C° 0 mm 2 mps 750 mmHg 85%
    02:00 +18°C° 0 mm 2 mps 750 mmHg 86%
    03:00 +18°C° 0 mm 2 mps 750 mmHg 85%
    04:00 +19°C° 0 mm 2 mps 750 mmHg 84%
    05:00 +19°C° 0 mm 2 mps 750 mmHg 83%
    06:00 +21°C° 0 mm 3 mps 750 mmHg 80%
    07:00 +22°C° 0 mm 3 mps 750 mmHg 78%
    08:00 +25°C° 0 mm 3 mps 750 mmHg 75%
    09:00 +26°C° 0 mm 4 mps 750 mmHg 70%
    10:00 +27°C° 0 mm 4 mps 750 mmHg 66%
    11:00 +28°C° 0 mm 4 mps 750 mmHg 61%
    12:00 +28°C° 0 mm 4 mps 749 mmHg 61%
    13:00 +29°C° 0 mm 5 mps 749 mmHg 61%
    14:00 +29°C° 0 mm 5 mps 749 mmHg 60%
    15:00 +29°C° 0 mm 4 mps 749 mmHg 64%
    16:00 +28°C° 0 mm 4 mps 749 mmHg 68%
    17:00 +28°C° 0 mm 3 mps 748 mmHg 73%
    18:00 +26°C° 0 mm 3 mps 749 mmHg 77%
    19:00 +25°C° 0 mm 3 mps 749 mmHg 81%
    20:00 +22°C° 0 mm 3 mps 749 mmHg 85%
    21:00 +22°C° 0 mm 3 mps 749 mmHg 86%
    22:00 +21°C° 0 mm 3 mps 749 mmHg 88%
    23:00 +21°C° 0 mm 3 mps 749 mmHg 90%

    23 Junio, Domingo

    Tiempo Temperatura Precipitaciones Viento Presión Humedad
    00:00 +20°C° 0 mm 3 mps 749 mmHg 91%
    01:00 +20°C° 0 mm 3 mps 749 mmHg 92%
    02:00 +19°C° 0 mm 3 mps 749 mmHg 93%
    03:00 +20°C° 0 mm 2 mps 749 mmHg 91%
    04:00 +21°C° 0 mm 2 mps 749 mmHg 90%
    05:00 +21°C° 0 mm 2 mps 749 mmHg 89%
    06:00 +24°C° 0 mm 2 mps 749 mmHg 83%
    07:00 +25°C° 0 mm 3 mps 749 mmHg 78%
    08:00 +27°C° 0 mm 3 mps 750 mmHg 72%
    09:00 +28°C° 0.1 mm 3 mps 749 mmHg 67%
    10:00 +29°C° 0.1 mm 3 mps 749 mmHg 63%
    11:00 +30°C° 0.1 mm 4 mps 749 mmHg 59%
    12:00 +30°C° 0 mm 4 mps 749 mmHg 58%
    13:00 +30°C° 0 mm 4 mps 749 mmHg 57%
    14:00 +30°C° 0 mm 4 mps 749 mmHg 56%
    15:00 +30°C° 0 mm 3 mps 749 mmHg 61%
    16:00 +30°C° 0 mm 3 mps 749 mmHg 65%
    17:00 +29°C° 0 mm 2 mps 749 mmHg 70%
    18:00 +28°C° 0 mm 2 mps 749 mmHg 73%
    19:00 +26°C° 0 mm 2 mps 749 mmHg 76%
    20:00 +24°C° 0 mm 2 mps 749 mmHg 79%
    21:00 +24°C° 0 mm 2 mps 749 mmHg 80%
    22:00 +23°C° 0 mm 2 mps 749 mmHg 81%
    23:00 +21°C° 0 mm 2 mps 749 mmHg 82%
    Mostrar más